Time,TemperatureF,DewpointF,PressureIn,WindDirection,WindDirectionDegrees,WindSpeedMPH,WindSpeedGustMPH,Humidity,HourlyPrecipIn,Conditions,Clouds,dailyrainin,SoftwareType,DateUTC
2013-01-17 00:02:00,67.0,44.4,29.96,East,90,0.0,0.0,44,0.00,,---,0.00,VWS V14.01,2013-01-17 05:02:00,
2013-01-17 00:03:00,66.0,43.5,29.96,East,90,0.0,0.0,44,0.00,,---,0.00,VWS V14.01,2013-01-17 05:03:00,
2013-01-17 00:04:00,66.0,43.5,29.96,East,90,0.0,0.0,44,0.00,,---,0.00,VWS V14.01,2013-01-17 05:04:00,
2013-01-17 00:09:00,67.0,44.4,29.96,East,90,0.0,0.0,44,0.00,,---,0.00,VWS V14.01,2013-01-17 05:09:00,
2013-01-17 00:14:00,67.0,44.4,29.96,East,90,0.0,0.0,44,0.00,,---,0.00,VWS V14.01,2013-01-17 05:14:00,
2013-01-17 00:17:00,67.0,43.8,29.96,East,90,0.0,0.0,43,0.00,,---,0.00,VWS V14.01,2013-01-17 05:17:00,
2013-01-17 00:22:00,67.0,44.4,29.94,East,90,0.0,0.0,44,0.00,,---,0.00,VWS V14.01,2013-01-17 05:22:00,
2013-01-17 00:27:00,67.0,43.8,29.94,East,90,0.0,0.0,43,0.00,,---,0.00,VWS V14.01,2013-01-17 05:27:00,
2013-01-17 00:32:00,67.0,43.8,29.94,East,90,0.0,0.0,43,0.00,,---,0.00,VWS V14.01,2013-01-17 05:32:00,
2013-01-17 00:37:00,67.0,43.8,29.94,East,90,0.0,0.0,43,0.00,,---,0.00,VWS V14.01,2013-01-17 05:37:00,
2013-01-17 00:42:00,67.0,43.8,29.95,East,90,0.0,0.0,43,0.00,,---,0.00,VWS V14.01,2013-01-17 05:42:00,
2013-01-17 00:47:00,67.0,43.2,29.95,East,90,0.0,0.0,42,0.00,,---,0.00,VWS V14.01,2013-01-17 05:47:00,
2013-01-17 00:52:00,67.0,43.2,29.96,East,90,0.0,0.0,42,0.00,,---,0.00,VWS V14.01,2013-01-17 05:52:00,
2013-01-17 00:57:00,67.0,43.2,29.96,East,90,0.0,0.0,42,0.00,,---,0.00,VWS V14.01,2013-01-17 05:57:00,
2013-01-17 01:02:00,67.0,43.2,29.96,East,90,0.0,0.0,42,0.00,,---,0.00,VWS V14.01,2013-01-17 06:02:00,
2013-01-17 01:07:00,67.0,43.2,29.96,East,90,0.0,0.0,42,0.00,,---,0.00,VWS V14.01,2013-01-17 06:07:00,
2013-01-17 01:12:00,67.0,42.5,29.96,East,90,0.0,0.0,41,0.00,,---,0.00,VWS V14.01,2013-01-17 06:12:00,
2013-01-17 01:17:00,67.0,41.9,29.96,East,90,0.0,0.0,40,0.00,,---,0.00,VWS V14.01,2013-01-17 06:17:00,
2013-01-17 01:22:00,68.0,44.1,29.95,East,90,0.0,0.0,42,0.00,,---,0.00,VWS V14.01,2013-01-17 06:22:00,
2013-01-17 01:27:00,67.0,42.5,29.95,East,90,0.0,0.0,41,0.00,,---,0.00,VWS V14.01,2013-01-17 06:27:00,
2013-01-17 01:32:00,68.0,43.5,29.94,East,90,0.0,0.0,41,0.00,,---,0.00,VWS V14.01,2013-01-17 06:32:00,
2013-01-17 01:37:00,68.0,43.5,29.94,East,90,0.0,0.0,41,0.00,,---,0.00,VWS V14.01,2013-01-17 06:37:00,
2013-01-17 01:42:00,68.0,43.5,29.96,East,90,0.0,0.0,41,0.00,,---,0.00,VWS V14.01,2013-01-17 06:42:00,
2013-01-17 01:47:00,68.0,43.5,29.96,East,90,0.0,0.0,41,0.00,,---,0.00,VWS V14.01,2013-01-17 06:47:00,
2013-01-17 01:52:00,68.0,43.5,29.94,East,90,0.0,0.0,41,0.00,,---,0.00,VWS V14.01,2013-01-17 06:52:00,
2013-01-17 01:57:00,68.0,43.5,29.94,East,90,0.0,0.0,41,0.00,,---,0.00,VWS V14.01,2013-01-17 06:57:00,
2013-01-17 02:02:00,68.0,43.5,29.96,East,90,0.0,0.0,41,0.00,,---,0.00,VWS V14.01,2013-01-17 07:02:00,
2013-01-17 02:07:00,68.0,42.8,29.96,East,90,0.0,0.0,40,0.00,,---,0.00,VWS V14.01,2013-01-17 07:07:00,
2013-01-17 02:12:00,68.0,43.5,29.97,East,90,0.0,0.0,41,0.00,,---,0.00,VWS V14.01,2013-01-17 07:12:00,
2013-01-17 02:17:00,68.0,43.5,29.97,East,90,0.0,0.0,41,0.00,,---,0.00,VWS V14.01,2013-01-17 07:17:00,
2013-01-17 02:22:00,68.0,43.5,29.96,East,90,0.0,0.0,41,0.00,,---,0.00,VWS V14.01,2013-01-17 07:22:00,
2013-01-17 02:27:00,68.0,42.8,29.96,East,90,0.0,0.0,40,0.00,,---,0.00,VWS V14.01,2013-01-17 07:27:00,
2013-01-17 02:32:00,68.0,42.8,29.95,East,90,0.0,0.0,40,0.00,,---,0.00,VWS V14.01,2013-01-17 07:32:00,
2013-01-17 02:37:00,68.0,42.1,29.95,East,90,0.0,0.0,39,0.00,,---,0.00,VWS V14.01,2013-01-17 07:37:00,
2013-01-17 02:42:00,68.0,42.1,29.97,East,90,0.0,0.0,39,0.00,,---,0.00,VWS V14.01,2013-01-17 07:42:00,
2013-01-17 02:47:00,68.0,42.1,29.97,East,90,0.0,0.0,39,0.00,,---,0.00,VWS V14.01,2013-01-17 07:47:00,
2013-01-17 02:52:00,68.0,42.1,29.97,East,90,0.0,0.0,39,0.00,,---,0.00,VWS V14.01,2013-01-17 07:52:00,
2013-01-17 02:57:00,68.0,41.5,29.97,East,90,0.0,0.0,38,0.00,,---,0.00,VWS V14.01,2013-01-17 07:57:00,
2013-01-17 03:02:00,68.0,41.5,29.97,East,90,0.0,0.0,38,0.00,,---,0.00,VWS V14.01,2013-01-17 08:02:00,
2013-01-17 03:07:00,68.0,40.8,29.97,East,90,0.0,0.0,37,0.00,,---,0.00,VWS V14.01,2013-01-17 08:07:00,
2013-01-17 03:12:00,68.0,40.8,29.96,East,90,0.0,0.0,37,0.00,,---,0.00,VWS V14.01,2013-01-17 08:12:00,
2013-01-17 03:17:00,68.0,40.8,29.96,East,90,0.0,0.0,37,0.00,,---,0.00,VWS V14.01,2013-01-17 08:17:00,
2013-01-17 03:22:00,69.0,41.7,29.96,East,90,0.0,0.0,37,0.00,,---,0.00,VWS V14.01,2013-01-17 08:22:00,
2013-01-17 03:27:00,69.0,41.7,29.96,East,90,0.0,0.0,37,0.00,,---,0.00,VWS V14.01,2013-01-17 08:27:00,
2013-01-17 03:32:00,69.0,41.0,29.97,East,90,0.0,0.0,36,0.00,,---,0.00,VWS V14.01,2013-01-17 08:32:00,
2013-01-17 03:37:00,69.0,40.2,29.97,East,90,0.0,0.0,35,0.00,,---,0.00,VWS V14.01,2013-01-17 08:37:00,
2013-01-17 03:42:00,69.0,41.0,29.96,East,90,0.0,0.0,36,0.00,,---,0.00,VWS V14.01,2013-01-17 08:42:00,
2013-01-17 03:47:00,68.0,40.1,29.96,East,90,0.0,0.0,36,0.00,,---,0.00,VWS V14.01,2013-01-17 08:47:00,
2013-01-17 03:52:00,68.0,40.8,29.97,East,90,0.0,0.0,37,0.00,,---,0.00,VWS V14.01,2013-01-17 08:52:00,
2013-01-17 03:57:00,68.0,40.8,29.97,East,90,0.0,0.0,37,0.00,,---,0.00,VWS V14.01,2013-01-17 08:57:00,
2013-01-17 04:02:00,68.0,40.1,29.97,East,90,0.0,0.0,36,0.00,,---,0.00,VWS V14.01,2013-01-17 09:02:00,
2013-01-17 04:07:00,68.0,39.3,29.97,East,90,0.0,0.0,35,0.00,,---,0.00,VWS V14.01,2013-01-17 09:07:00,
2013-01-17 04:12:00,68.0,38.6,29.96,East,90,0.0,0.0,34,0.00,,---,0.00,VWS V14.01,2013-01-17 09:12:00,
2013-01-17 04:17:00,68.0,39.3,29.96,East,90,0.0,0.0,35,0.00,,---,0.00,VWS V14.01,2013-01-17 09:17:00,
2013-01-17 04:22:00,69.0,39.5,29.96,East,90,0.0,0.0,34,0.00,,---,0.00,VWS V14.01,2013-01-17 09:22:00,
2013-01-17 04:27:00,69.0,39.5,29.96,East,90,0.0,0.0,34,0.00,,---,0.00,VWS V14.01,2013-01-17 09:27:00,
2013-01-17 04:32:00,69.0,38.7,29.95,East,90,0.0,0.0,33,0.00,,---,0.00,VWS V14.01,2013-01-17 09:32:00,
2013-01-17 04:37:00,68.0,38.6,29.95,East,90,0.0,0.0,34,0.00,,---,0.00,VWS V14.01,2013-01-17 09:37:00,
2013-01-17 04:42:00,68.0,38.6,29.94,East,90,0.0,0.0,34,0.00,,---,0.00,VWS V14.01,2013-01-17 09:42:00,
2013-01-17 04:47:00,68.0,38.6,29.94,East,90,0.0,0.0,34,0.00,,---,0.00,VWS V14.01,2013-01-17 09:47:00,
2013-01-17 04:52:00,69.0,38.7,29.96,East,90,0.0,0.0,33,0.00,,---,0.00,VWS V14.01,2013-01-17 09:52:00,
2013-01-17 04:57:00,69.0,38.7,29.96,East,90,0.0,0.0,33,0.00,,---,0.00,VWS V14.01,2013-01-17 09:57:00,
2013-01-17 05:02:00,69.0,37.9,29.96,East,90,0.0,0.0,32,0.00,,---,0.00,VWS V14.01,2013-01-17 10:02:00,
2013-01-17 05:07:00,69.0,37.9,29.96,East,90,0.0,0.0,32,0.00,,---,0.00,VWS V14.01,2013-01-17 10:07:00,
2013-01-17 05:12:00,69.0,37.9,29.96,East,90,0.0,0.0,32,0.00,,---,0.00,VWS V14.01,2013-01-17 10:12:00,
2013-01-17 05:17:00,69.0,37.9,29.96,East,90,0.0,0.0,32,0.00,,---,0.00,VWS V14.01,2013-01-17 10:17:00,
2013-01-17 05:22:00,69.0,37.9,29.97,East,90,0.0,0.0,32,0.00,,---,0.00,VWS V14.01,2013-01-17 10:22:00,
2013-01-17 05:27:00,69.0,37.9,29.97,East,90,0.0,0.0,32,0.00,,---,0.00,VWS V14.01,2013-01-17 10:27:00,
2013-01-17 05:32:00,69.0,37.9,29.98,East,90,0.0,0.0,32,0.00,,---,0.00,VWS V14.01,2013-01-17 10:32:00,
2013-01-17 05:37:00,69.0,37.9,29.98,East,90,0.0,0.0,32,0.00,,---,0.00,VWS V14.01,2013-01-17 10:37:00,
2013-01-17 05:42:00,69.0,37.9,29.98,East,90,0.0,0.0,32,0.00,,---,0.00,VWS V14.01,2013-01-17 10:42:00,
2013-01-17 05:47:00,69.0,37.9,29.98,East,90,0.0,0.0,32,0.00,,---,0.00,VWS V14.01,2013-01-17 10:47:00,
2013-01-17 05:52:00,69.0,37.9,29.98,East,90,0.0,0.0,32,0.00,,---,0.00,VWS V14.01,2013-01-17 10:52:00,
2013-01-17 05:57:00,68.0,37.1,29.98,East,90,0.0,0.0,32,0.00,,---,0.00,VWS V14.01,2013-01-17 10:57:00,
2013-01-17 06:02:00,68.0,37.1,29.98,East,90,0.0,0.0,32,0.00,,---,0.00,VWS V14.01,2013-01-17 11:02:00,
2013-01-17 06:07:00,69.0,37.9,29.98,East,90,0.0,0.0,32,0.00,,---,0.00,VWS V14.01,2013-01-17 11:07:00,
2013-01-17 06:12:00,69.0,37.9,30.00,East,90,0.0,0.0,32,0.00,,---,0.00,VWS V14.01,2013-01-17 11:12:00,
2013-01-17 06:17:00,69.0,37.9,30.00,East,90,0.0,0.0,32,0.00,,---,0.00,VWS V14.01,2013-01-17 11:17:00,
2013-01-17 06:22:00,69.0,37.1,30.00,East,90,0.0,0.0,31,0.00,,---,0.00,VWS V14.01,2013-01-17 11:22:00,
2013-01-17 06:27:00,68.0,36.3,30.00,East,90,0.0,0.0,31,0.00,,---,0.00,VWS V14.01,2013-01-17 11:27:00,
2013-01-17 06:32:00,68.0,36.3,30.00,East,90,0.0,0.0,31,0.00,,---,0.00,VWS V14.01,2013-01-17 11:32:00,
2013-01-17 06:37:00,69.0,37.1,30.00,East,90,0.0,0.0,31,0.00,,---,0.00,VWS V14.01,2013-01-17 11:37:00,
2013-01-17 06:42:00,69.0,36.3,30.00,East,90,0.0,0.0,30,0.00,,---,0.00,VWS V14.01,2013-01-17 11:42:00,
2013-01-17 06:47:00,69.0,36.3,30.00,East,90,0.0,0.0,30,0.00,,---,0.00,VWS V14.01,2013-01-17 11:47:00,
2013-01-17 06:52:00,69.0,36.3,30.02,East,90,0.0,0.0,30,0.00,,---,0.00,VWS V14.01,2013-01-17 11:52:00,
2013-01-17 06:57:00,69.0,36.3,30.02,East,90,0.0,0.0,30,0.00,,---,0.00,VWS V14.01,2013-01-17 11:57:00,
2013-01-17 07:02:00,69.0,36.3,30.02,East,90,0.0,0.0,30,0.00,,---,0.00,VWS V14.01,2013-01-17 12:02:00,
2013-01-17 07:07:00,69.0,36.3,30.02,East,90,0.0,0.0,30,0.00,,---,0.00,VWS V14.01,2013-01-17 12:07:00,
2013-01-17 07:12:00,69.0,36.3,30.03,East,90,0.0,0.0,30,0.00,,---,0.00,VWS V14.01,2013-01-17 12:12:00,
2013-01-17 07:17:00,69.0,36.3,30.03,East,90,0.0,0.0,30,0.00,,---,0.00,VWS V14.01,2013-01-17 12:17:00,
2013-01-17 07:22:00,69.0,36.3,30.04,East,90,0.0,0.0,30,0.00,,---,0.00,VWS V14.01,2013-01-17 12:22:00,
2013-01-17 07:27:00,69.0,36.3,30.04,East,90,0.0,0.0,30,0.00,,---,0.00,VWS V14.01,2013-01-17 12:27:00,
2013-01-17 07:32:00,69.0,36.3,30.03,East,90,0.0,0.0,30,0.00,,---,0.00,VWS V14.01,2013-01-17 12:32:00,
2013-01-17 07:37:00,69.0,36.3,30.03,East,90,0.0,0.0,30,0.00,,---,0.00,VWS V14.01,2013-01-17 12:37:00,
2013-01-17 07:42:00,68.0,34.6,30.04,East,90,0.0,0.0,29,0.00,,---,0.00,VWS V14.01,2013-01-17 12:42:00,
2013-01-17 07:47:00,68.0,35.4,30.04,East,90,0.0,0.0,30,0.00,,---,0.00,VWS V14.01,2013-01-17 12:47:00,
2013-01-17 07:52:00,68.0,35.4,30.04,East,90,0.0,0.0,30,0.00,,---,0.00,VWS V14.01,2013-01-17 12:52:00,
2013-01-17 07:57:00,68.0,35.4,30.04,East,90,0.0,0.0,30,0.00,,---,0.00,VWS V14.01,2013-01-17 12:57:00,
2013-01-17 08:02:00,68.0,35.4,30.06,East,90,0.0,0.0,30,0.00,,---,0.00,VWS V14.01,2013-01-17 13:02:00,
2013-01-17 08:07:00,68.0,35.4,30.06,East,90,0.0,0.0,30,0.00,,---,0.00,VWS V14.01,2013-01-17 13:07:00,
2013-01-17 08:12:00,68.0,35.4,30.07,East,90,0.0,0.0,30,0.00,,---,0.00,VWS V14.01,2013-01-17 13:12:00,
2013-01-17 08:17:00,68.0,35.4,30.07,East,90,0.0,0.0,30,0.00,,---,0.00,VWS V14.01,2013-01-17 13:17:00,
2013-01-17 08:22:00,68.0,35.4,30.07,East,90,0.0,0.0,30,0.00,,---,0.00,VWS V14.01,2013-01-17 13:22:00,
2013-01-17 08:28:00,68.0,35.4,30.07,East,90,0.0,0.0,30,0.00,,---,0.00,VWS V14.01,2013-01-17 13:28:00,
2013-01-17 08:33:00,68.0,34.6,30.08,East,90,0.0,0.0,29,0.00,,---,0.00,VWS V14.01,2013-01-17 13:33:00,
2013-01-17 08:38:00,68.0,35.4,30.08,East,90,0.0,0.0,30,0.00,,---,0.00,VWS V14.01,2013-01-17 13:38:00,
2013-01-17 08:43:00,68.0,35.4,30.08,East,90,0.0,0.0,30,0.00,,---,0.00,VWS V14.01,2013-01-17 13:43:00,
2013-01-17 08:48:00,68.0,34.6,30.08,East,90,0.0,0.0,29,0.00,,---,0.00,VWS V14.01,2013-01-17 13:48:00,
2013-01-17 08:53:00,68.0,35.4,30.08,East,90,0.0,0.0,30,0.00,,---,0.00,VWS V14.01,2013-01-17 13:53:00,
2013-01-17 08:58:00,68.0,35.4,30.08,East,90,0.0,0.0,30,0.00,,---,0.00,VWS V14.01,2013-01-17 13:58:00,
2013-01-17 09:03:00,68.0,35.4,30.09,East,90,0.0,0.0,30,0.00,,---,0.00,VWS V14.01,2013-01-17 14:03:00,
2013-01-17 09:08:00,68.0,35.4,30.09,East,90,0.0,0.0,30,0.00,,---,0.00,VWS V14.01,2013-01-17 14:08:00,
2013-01-17 09:13:00,68.0,34.6,30.08,East,90,0.0,0.0,29,0.00,,---,0.00,VWS V14.01,2013-01-17 14:13:00,
2013-01-17 09:18:00,68.0,35.4,30.08,East,90,0.0,0.0,30,0.00,,---,0.00,VWS V14.01,2013-01-17 14:18:00,
2013-01-17 09:23:00,68.0,35.4,30.09,East,90,0.0,0.0,30,0.00,,---,0.00,VWS V14.01,2013-01-17 14:23:00,
2013-01-17 09:28:00,68.0,35.4,30.09,East,90,0.0,0.0,30,0.00,,---,0.00,VWS V14.01,2013-01-17 14:28:00,
2013-01-17 09:33:00,68.0,35.4,30.09,East,90,0.0,0.0,30,0.00,,---,0.00,VWS V14.01,2013-01-17 14:33:00,
2013-01-17 09:38:00,68.0,35.4,30.09,East,90,0.0,0.0,30,0.00,,---,0.00,VWS V14.01,2013-01-17 14:38:00,
2013-01-17 09:43:00,68.0,36.3,30.10,East,90,0.0,0.0,31,0.00,,---,0.00,VWS V14.01,2013-01-17 14:43:00,
2013-01-17 09:48:00,68.0,35.4,30.10,East,90,0.0,0.0,30,0.00,,---,0.00,VWS V14.01,2013-01-17 14:48:00,
2013-01-17 09:53:00,69.0,36.3,30.09,East,90,0.0,0.0,30,0.00,,---,0.00,VWS V14.01,2013-01-17 14:53:00,
2013-01-17 09:58:00,69.0,36.3,30.09,East,90,0.0,0.0,30,0.00,,---,0.00,VWS V14.01,2013-01-17 14:58:00,
2013-01-17 10:03:00,69.0,35.5,30.10,East,90,0.0,0.0,29,0.00,,---,0.00,VWS V14.01,2013-01-17 15:03:00,
2013-01-17 10:08:00,69.0,35.5,30.10,East,90,0.0,0.0,29,0.00,,---,0.00,VWS V14.01,2013-01-17 15:08:00,
2013-01-17 10:13:00,69.0,36.3,30.09,East,90,0.0,0.0,30,0.00,,---,0.00,VWS V14.01,2013-01-17 15:13:00,
2013-01-17 10:18:00,69.0,35.5,30.09,East,90,0.0,0.0,29,0.00,,---,0.00,VWS V14.01,2013-01-17 15:18:00,
2013-01-17 10:23:00,70.0,36.3,30.07,East,90,0.0,0.0,29,0.00,,---,0.00,VWS V14.01,2013-01-17 15:23:00,
2013-01-17 10:28:00,70.0,36.3,30.07,East,90,0.0,0.0,29,0.00,,---,0.00,VWS V14.01,2013-01-17 15:28:00,
2013-01-17 10:33:00,70.0,36.3,30.08,East,90,0.0,0.0,29,0.00,,---,0.00,VWS V14.01,2013-01-17 15:33:00,
2013-01-17 10:38:00,70.0,36.3,30.08,East,90,0.0,0.0,29,0.00,,---,0.00,VWS V14.01,2013-01-17 15:38:00,
2013-01-17 10:43:00,70.0,35.4,30.09,East,90,0.0,0.0,28,0.00,,---,0.00,VWS V14.01,2013-01-17 15:43:00,
2013-01-17 10:48:00,70.0,36.3,30.09,East,90,0.0,0.0,29,0.00,,---,0.00,VWS V14.01,2013-01-17 15:48:00,
2013-01-17 10:53:00,70.0,34.5,30.08,East,90,0.0,0.0,27,0.00,,---,0.00,VWS V14.01,2013-01-17 15:53:00,
2013-01-17 10:58:00,70.0,35.4,30.08,East,90,0.0,0.0,28,0.00,,---,0.00,VWS V14.01,2013-01-17 15:58:00,
2013-01-17 11:03:00,70.0,35.4,30.09,East,90,0.0,0.0,28,0.00,,---,0.00,VWS V14.01,2013-01-17 16:03:00,
2013-01-17 11:08:00,70.0,35.4,30.09,East,90,0.0,0.0,28,0.00,,---,0.00,VWS V14.01,2013-01-17 16:08:00,
2013-01-17 11:13:00,70.0,35.4,30.09,East,90,0.0,0.0,28,0.00,,---,0.00,VWS V14.01,2013-01-17 16:13:00,
2013-01-17 11:18:00,70.0,34.5,30.09,East,90,0.0,0.0,27,0.00,,---,0.00,VWS V14.01,2013-01-17 16:18:00,
2013-01-17 11:23:00,70.0,35.4,30.08,East,90,0.0,0.0,28,0.00,,---,0.00,VWS V14.01,2013-01-17 16:23:00,
2013-01-17 11:28:00,69.0,34.6,30.08,East,90,0.0,0.0,28,0.00,,---,0.00,VWS V14.01,2013-01-17 16:28:00,
2013-01-17 11:33:00,69.0,35.5,30.08,East,90,0.0,0.0,29,0.00,,---,0.00,VWS V14.01,2013-01-17 16:33:00,
2013-01-17 11:38:00,70.0,36.3,30.08,East,90,0.0,0.0,29,0.00,,---,0.00,VWS V14.01,2013-01-17 16:38:00,
2013-01-17 11:43:00,70.0,36.3,30.08,East,90,0.0,0.0,29,0.00,,---,0.00,VWS V14.01,2013-01-17 16:43:00,
2013-01-17 11:48:00,70.0,36.3,30.08,East,90,0.0,0.0,29,0.00,,---,0.00,VWS V14.01,2013-01-17 16:48:00,
2013-01-17 11:53:00,70.0,36.3,30.07,East,90,0.0,0.0,29,0.00,,---,0.00,VWS V14.01,2013-01-17 16:53:00,
2013-01-17 11:58:00,70.0,36.3,30.07,East,90,0.0,0.0,29,0.00,,---,0.00,VWS V14.01,2013-01-17 16:58:00,
2013-01-17 12:03:00,70.0,35.4,30.07,East,90,0.0,0.0,28,0.00,,---,0.00,VWS V14.01,2013-01-17 17:03:00,
2013-01-17 12:08:00,70.0,35.4,30.07,East,90,0.0,0.0,28,0.00,,---,0.00,VWS V14.01,2013-01-17 17:08:00,
2013-01-17 12:13:00,70.0,36.3,30.07,East,90,0.0,0.0,29,0.00,,---,0.00,VWS V14.01,2013-01-17 17:13:00,
2013-01-17 12:18:00,70.0,36.3,30.07,East,90,0.0,0.0,29,0.00,,---,0.00,VWS V14.01,2013-01-17 17:18:00,
2013-01-17 12:23:00,71.0,37.2,30.08,East,90,0.0,0.0,29,0.00,,---,0.00,VWS V14.01,2013-01-17 17:23:00,
2013-01-17 12:28:00,71.0,35.4,30.08,East,90,0.0,0.0,27,0.00,,---,0.00,VWS V14.01,2013-01-17 17:28:00,
2013-01-17 12:33:00,71.0,34.4,30.08,East,90,0.0,0.0,26,0.00,,---,0.00,VWS V14.01,2013-01-17 17:33:00,
2013-01-17 12:38:00,71.0,33.4,30.08,East,90,0.0,0.0,25,0.00,,---,0.00,VWS V14.01,2013-01-17 17:38:00,
2013-01-17 12:43:00,71.0,33.4,30.07,East,90,0.0,0.0,25,0.00,,---,0.00,VWS V14.01,2013-01-17 17:43:00,
2013-01-17 12:48:00,71.0,33.4,30.07,East,90,0.0,0.0,25,0.00,,---,0.00,VWS V14.01,2013-01-17 17:48:00,
2013-01-17 12:53:00,71.0,33.4,30.07,East,90,0.0,0.0,25,0.00,,---,0.00,VWS V14.01,2013-01-17 17:53:00,
2013-01-17 12:58:00,71.0,33.4,30.07,East,90,0.0,0.0,25,0.00,,---,0.00,VWS V14.01,2013-01-17 17:58:00,
2013-01-17 13:04:00,71.0,33.4,30.08,East,90,0.0,0.0,25,0.00,,---,0.00,VWS V14.01,2013-01-17 18:04:00,
2013-01-17 13:09:00,71.0,33.4,30.06,East,90,0.0,0.0,25,0.00,,---,0.00,VWS V14.01,2013-01-17 18:09:00,
2013-01-17 13:14:00,71.0,33.4,30.06,East,90,0.0,0.0,25,0.00,,---,0.00,VWS V14.01,2013-01-17 18:14:00,
2013-01-17 13:19:00,71.0,33.4,30.06,East,90,0.0,0.0,25,0.00,,---,0.00,VWS V14.01,2013-01-17 18:19:00,
2013-01-17 13:24:00,71.0,33.4,30.06,East,90,0.0,0.0,25,0.00,,---,0.00,VWS V14.01,2013-01-17 18:24:00,
2013-01-17 13:29:00,71.0,33.4,30.06,East,90,0.0,0.0,25,0.00,,---,0.00,VWS V14.01,2013-01-17 18:29:00,
2013-01-17 13:34:00,71.0,33.4,30.06,East,90,0.0,0.0,25,0.00,,---,0.00,VWS V14.01,2013-01-17 18:34:00,
2013-01-17 13:39:00,71.0,33.4,30.06,East,90,0.0,0.0,25,0.00,,---,0.00,VWS V14.01,2013-01-17 18:39:00,
2013-01-17 13:44:00,71.0,33.4,30.06,East,90,0.0,0.0,25,0.00,,---,0.00,VWS V14.01,2013-01-17 18:44:00,
2013-01-17 13:49:00,71.0,33.4,30.06,East,90,0.0,0.0,25,0.00,,---,0.00,VWS V14.01,2013-01-17 18:49:00,
2013-01-17 13:54:00,71.0,33.4,30.06,East,90,0.0,0.0,25,0.00,,---,0.00,VWS V14.01,2013-01-17 18:54:00,
2013-01-17 13:59:00,71.0,33.4,30.05,East,90,0.0,0.0,25,0.00,,---,0.00,VWS V14.01,2013-01-17 18:59:00,
2013-01-17 14:04:00,71.0,33.4,30.05,East,90,0.0,0.0,25,0.00,,---,0.00,VWS V14.01,2013-01-17 19:04:00,
2013-01-17 14:09:00,71.0,33.4,30.05,East,90,0.0,0.0,25,0.00,,---,0.00,VWS V14.01,2013-01-17 19:09:00,
2013-01-17 14:14:00,71.0,33.4,30.05,East,90,0.0,0.0,25,0.00,,---,0.00,VWS V14.01,2013-01-17 19:14:00,
2013-01-17 14:19:00,71.0,32.4,30.05,East,90,0.0,0.0,24,0.00,,---,0.00,VWS V14.01,2013-01-17 19:19:00,
2013-01-17 14:24:00,71.0,32.4,30.05,East,90,0.0,0.0,24,0.00,,---,0.00,VWS V14.01,2013-01-17 19:24:00,
2013-01-17 14:29:00,71.0,32.4,30.05,East,90,0.0,0.0,24,0.00,,---,0.00,VWS V14.01,2013-01-17 19:29:00,
2013-01-17 14:34:00,71.0,32.4,30.05,East,90,0.0,0.0,24,0.00,,---,0.00,VWS V14.01,2013-01-17 19:34:00,
2013-01-17 14:39:00,71.0,32.4,30.05,East,90,0.0,0.0,24,0.00,,---,0.00,VWS V14.01,2013-01-17 19:39:00,
2013-01-17 14:44:00,71.0,32.4,30.05,East,90,0.0,0.0,24,0.00,,---,0.00,VWS V14.01,2013-01-17 19:44:00,
2013-01-17 14:49:00,71.0,32.4,30.06,East,90,0.0,0.0,24,0.00,,---,0.00,VWS V14.01,2013-01-17 19:49:00,
2013-01-17 14:54:00,71.0,32.4,30.06,East,90,0.0,0.0,24,0.00,,---,0.00,VWS V14.01,2013-01-17 19:54:00,
2013-01-17 14:59:00,71.0,33.4,30.06,East,90,0.0,0.0,25,0.00,,---,0.00,VWS V14.01,2013-01-17 19:59:00,
2013-01-17 15:04:00,70.0,32.6,30.06,East,90,0.0,0.0,25,0.00,,---,0.00,VWS V14.01,2013-01-17 20:04:00,
2013-01-17 15:09:00,71.0,33.4,30.06,East,90,0.0,0.0,25,0.00,,---,0.00,VWS V14.01,2013-01-17 20:09:00,
2013-01-17 15:14:00,70.0,32.6,30.06,East,90,0.0,0.0,25,0.00,,---,0.00,VWS V14.01,2013-01-17 20:14:00,
2013-01-17 15:19:00,71.0,33.4,30.06,East,90,0.0,0.0,25,0.00,,---,0.00,VWS V14.01,2013-01-17 20:19:00,
2013-01-17 15:24:00,71.0,33.4,30.06,East,90,0.0,0.0,25,0.00,,---,0.00,VWS V14.01,2013-01-17 20:24:00,
2013-01-17 15:29:00,71.0,32.4,30.07,East,90,0.0,0.0,24,0.00,,---,0.00,VWS V14.01,2013-01-17 20:29:00,
2013-01-17 15:34:00,71.0,33.4,30.07,East,90,0.0,0.0,25,0.00,,---,0.00,VWS V14.01,2013-01-17 20:34:00,
2013-01-17 15:39:00,71.0,32.4,30.06,East,90,0.0,0.0,24,0.00,,---,0.00,VWS V14.01,2013-01-17 20:39:00,
2013-01-17 15:44:00,71.0,32.4,30.06,East,90,0.0,0.0,24,0.00,,---,0.00,VWS V14.01,2013-01-17 20:44:00,
2013-01-17 15:49:00,71.0,32.4,30.07,East,90,0.0,0.0,24,0.00,,---,0.00,VWS V14.01,2013-01-17 20:49:00,
2013-01-17 15:54:00,71.0,32.4,30.07,East,90,0.0,0.0,24,0.00,,---,0.00,VWS V14.01,2013-01-17 20:54:00,
2013-01-17 15:59:00,71.0,32.4,30.07,East,90,0.0,0.0,24,0.00,,---,0.00,VWS V14.01,2013-01-17 20:59:00,
2013-01-17 16:04:00,71.0,32.4,30.07,East,90,0.0,0.0,24,0.00,,---,0.00,VWS V14.01,2013-01-17 21:04:00,
2013-01-17 16:09:00,71.0,32.4,30.07,East,90,0.0,0.0,24,0.00,,---,0.00,VWS V14.01,2013-01-17 21:09:00,
2013-01-17 16:14:00,70.0,31.6,30.07,East,90,0.0,0.0,24,0.00,,---,0.00,VWS V14.01,2013-01-17 21:14:00,
2013-01-17 16:19:00,71.0,32.4,30.08,East,90,0.0,0.0,24,0.00,,---,0.00,VWS V14.01,2013-01-17 21:19:00,
2013-01-17 16:24:00,70.0,31.6,30.08,East,90,0.0,0.0,24,0.00,,---,0.00,VWS V14.01,2013-01-17 21:24:00,
2013-01-17 16:29:00,71.0,32.4,30.08,East,90,0.0,0.0,24,0.00,,---,0.00,VWS V14.01,2013-01-17 21:29:00,
2013-01-17 16:34:00,70.0,31.6,30.08,East,90,0.0,0.0,24,0.00,,---,0.00,VWS V14.01,2013-01-17 21:34:00,
2013-01-17 16:39:00,71.0,32.4,30.08,East,90,0.0,0.0,24,0.00,,---,0.00,VWS V14.01,2013-01-17 21:39:00,
2013-01-17 16:44:00,70.0,31.6,30.08,East,90,0.0,0.0,24,0.00,,---,0.00,VWS V14.01,2013-01-17 21:44:00,
2013-01-17 16:49:00,71.0,32.4,30.08,East,90,0.0,0.0,24,0.00,,---,0.00,VWS V14.01,2013-01-17 21:49:00,
2013-01-17 16:54:00,70.0,31.6,30.08,East,90,0.0,0.0,24,0.00,,---,0.00,VWS V14.01,2013-01-17 21:54:00,
2013-01-17 16:59:00,71.0,33.4,30.08,East,90,0.0,0.0,25,0.00,,---,0.00,VWS V14.01,2013-01-17 21:59:00,
2013-01-17 17:04:00,71.0,33.4,30.08,East,90,0.0,0.0,25,0.00,,---,0.00,VWS V14.01,2013-01-17 22:04:00,
2013-01-17 17:09:00,71.0,32.4,30.09,East,90,0.0,0.0,24,0.00,,---,0.00,VWS V14.01,2013-01-17 22:09:00,
2013-01-17 17:14:00,71.0,32.4,30.09,East,90,0.0,0.0,24,0.00,,---,0.00,VWS V14.01,2013-01-17 22:14:00,
2013-01-17 17:19:00,71.0,32.4,30.10,East,90,0.0,0.0,24,0.00,,---,0.00,VWS V14.01,2013-01-17 22:19:00,
2013-01-17 17:24:00,71.0,33.4,30.10,East,90,0.0,0.0,25,0.00,,---,0.00,VWS V14.01,2013-01-17 22:24:00,
2013-01-17 17:29:00,71.0,32.4,30.10,East,90,0.0,0.0,24,0.00,,---,0.00,VWS V14.01,2013-01-17 22:29:00,
2013-01-17 17:34:00,71.0,32.4,30.10,East,90,0.0,0.0,24,0.00,,---,0.00,VWS V14.01,2013-01-17 22:34:00,
2013-01-17 17:39:00,71.0,32.4,30.08,East,90,0.0,0.0,24,0.00,,---,0.00,VWS V14.01,2013-01-17 22:39:00,
2013-01-17 17:44:00,71.0,32.4,30.08,East,90,0.0,0.0,24,0.00,,---,0.00,VWS V14.01,2013-01-17 22:44:00,
2013-01-17 17:49:00,71.0,33.4,30.09,East,90,0.0,0.0,25,0.00,,---,0.00,VWS V14.01,2013-01-17 22:49:00,
2013-01-17 17:54:00,71.0,33.4,30.09,East,90,0.0,0.0,25,0.00,,---,0.00,VWS V14.01,2013-01-17 22:54:00,
2013-01-17 17:59:00,71.0,33.4,30.10,East,90,0.0,0.0,25,0.00,,---,0.00,VWS V14.01,2013-01-17 22:59:00,
2013-01-17 18:04:00,71.0,32.4,30.10,East,90,0.0,0.0,24,0.00,,---,0.00,VWS V14.01,2013-01-17 23:04:00,
2013-01-17 18:09:00,71.0,32.4,30.10,East,90,0.0,0.0,24,0.00,,---,0.00,VWS V14.01,2013-01-17 23:09:00,
2013-01-17 18:14:00,71.0,32.4,30.10,East,90,0.0,0.0,24,0.00,,---,0.00,VWS V14.01,2013-01-17 23:14:00,
2013-01-17 18:19:00,71.0,33.4,30.10,East,90,0.0,0.0,25,0.00,,---,0.00,VWS V14.01,2013-01-17 23:19:00,
2013-01-17 18:24:00,71.0,34.4,30.10,East,90,0.0,0.0,26,0.00,,---,0.00,VWS V14.01,2013-01-17 23:24:00,
2013-01-17 18:29:00,71.0,33.4,30.10,East,90,0.0,0.0,25,0.00,,---,0.00,VWS V14.01,2013-01-17 23:29:00,
2013-01-17 18:34:00,70.0,32.6,30.10,East,90,0.0,0.0,25,0.00,,---,0.00,VWS V14.01,2013-01-17 23:34:00,
2013-01-17 18:39:00,71.0,33.4,30.11,East,90,0.0,0.0,25,0.00,,---,0.00,VWS V14.01,2013-01-17 23:39:00,
2013-01-17 18:44:00,70.0,32.6,30.11,East,90,0.0,0.0,25,0.00,,---,0.00,VWS V14.01,2013-01-17 23:44:00,
2013-01-17 18:49:00,71.0,33.4,30.11,East,90,0.0,0.0,25,0.00,,---,0.00,VWS V14.01,2013-01-17 23:49:00,
2013-01-17 18:54:00,70.0,32.6,30.11,East,90,0.0,0.0,25,0.00,,---,0.00,VWS V14.01,2013-01-17 23:54:00,
2013-01-17 18:59:00,71.0,33.4,30.10,East,90,0.0,0.0,25,0.00,,---,0.00,VWS V14.01,2013-01-17 23:59:00,
2013-01-17 19:04:00,70.0,32.6,30.10,East,90,0.0,0.0,25,0.00,,---,0.00,VWS V14.01,2013-01-18 00:04:00,
2013-01-17 19:09:00,71.0,33.4,30.10,East,90,0.0,0.0,25,0.00,,---,0.00,VWS V14.01,2013-01-18 00:09:00,
2013-01-17 19:14:00,70.0,34.5,30.10,East,90,0.0,0.0,27,0.00,,---,0.00,VWS V14.01,2013-01-18 00:14:00,
2013-01-17 19:19:00,70.0,34.5,30.10,East,90,0.0,0.0,27,0.00,,---,0.00,VWS V14.01,2013-01-18 00:19:00,
2013-01-17 19:24:00,70.0,35.4,30.10,East,90,0.0,0.0,28,0.00,,---,0.00,VWS V14.01,2013-01-18 00:24:00,
2013-01-17 19:29:00,70.0,34.5,30.10,East,90,0.0,0.0,27,0.00,,---,0.00,VWS V14.01,2013-01-18 00:29:00,
2013-01-17 19:34:00,70.0,34.5,30.10,East,90,0.0,0.0,27,0.00,,---,0.00,VWS V14.01,2013-01-18 00:34:00,
2013-01-17 19:39:00,70.0,34.5,30.10,East,90,0.0,0.0,27,0.00,,---,0.00,VWS V14.01,2013-01-18 00:39:00,
2013-01-17 19:44:00,70.0,35.4,30.10,East,90,0.0,0.0,28,0.00,,---,0.00,VWS V14.01,2013-01-18 00:44:00,
2013-01-17 19:49:00,70.0,34.5,30.10,East,90,0.0,0.0,27,0.00,,---,0.00,VWS V14.01,2013-01-18 00:49:00,
2013-01-17 19:54:00,70.0,35.4,30.10,East,90,0.0,0.0,28,0.00,,---,0.00,VWS V14.01,2013-01-18 00:54:00,
2013-01-17 19:59:00,70.0,35.4,30.10,East,90,0.0,0.0,28,0.00,,---,0.00,VWS V14.01,2013-01-18 00:59:00,
2013-01-17 20:04:00,70.0,36.3,30.10,East,90,0.0,0.0,29,0.00,,---,0.00,VWS V14.01,2013-01-18 01:04:00,
2013-01-17 20:09:00,70.0,35.4,30.09,East,90,0.0,0.0,28,0.00,,---,0.00,VWS V14.01,2013-01-18 01:09:00,
2013-01-17 20:14:00,70.0,36.3,30.09,East,90,0.0,0.0,29,0.00,,---,0.00,VWS V14.01,2013-01-18 01:14:00,
2013-01-17 20:19:00,70.0,35.4,30.08,East,90,0.0,0.0,28,0.00,,---,0.00,VWS V14.01,2013-01-18 01:19:00,
2013-01-17 20:24:00,70.0,36.3,30.08,East,90,0.0,0.0,29,0.00,,---,0.00,VWS V14.01,2013-01-18 01:24:00,
2013-01-17 20:29:00,70.0,35.4,30.08,East,90,0.0,0.0,28,0.00,,---,0.00,VWS V14.01,2013-01-18 01:29:00,
2013-01-17 20:34:00,70.0,34.5,30.08,East,90,0.0,0.0,27,0.00,,---,0.00,VWS V14.01,2013-01-18 01:34:00,
2013-01-17 20:39:00,70.0,33.6,30.07,East,90,0.0,0.0,26,0.00,,---,0.00,VWS V14.01,2013-01-18 01:39:00,
2013-01-17 20:44:00,70.0,34.5,30.07,East,90,0.0,0.0,27,0.00,,---,0.00,VWS V14.01,2013-01-18 01:44:00,
2013-01-17 20:49:00,70.0,33.6,30.08,East,90,0.0,0.0,26,0.00,,---,0.00,VWS V14.01,2013-01-18 01:49:00,
2013-01-17 20:54:00,69.0,32.7,30.08,East,90,0.0,0.0,26,0.00,,---,0.00,VWS V14.01,2013-01-18 01:54:00,
2013-01-17 20:59:00,69.0,32.7,30.09,East,90,0.0,0.0,26,0.00,,---,0.00,VWS V14.01,2013-01-18 01:59:00,
2013-01-17 21:04:00,69.0,32.7,30.09,East,90,0.0,0.0,26,0.00,,---,0.00,VWS V14.01,2013-01-18 02:04:00,
2013-01-17 21:09:00,69.0,31.8,30.08,East,90,0.0,0.0,25,0.00,,---,0.00,VWS V14.01,2013-01-18 02:09:00,
2013-01-17 21:14:00,69.0,31.8,30.08,East,90,0.0,0.0,25,0.00,,---,0.00,VWS V14.01,2013-01-18 02:14:00,
2013-01-17 21:19:00,69.0,31.8,30.07,East,90,0.0,0.0,25,0.00,,---,0.00,VWS V14.01,2013-01-18 02:19:00,
2013-01-17 21:24:00,69.0,31.8,30.07,East,90,0.0,0.0,25,0.00,,---,0.00,VWS V14.01,2013-01-18 02:24:00,
2013-01-17 21:29:00,69.0,30.7,30.08,East,90,0.0,0.0,24,0.00,,---,0.00,VWS V14.01,2013-01-18 02:29:00,
2013-01-17 21:34:00,68.0,30.9,30.08,East,90,0.0,0.0,25,0.00,,---,0.00,VWS V14.01,2013-01-18 02:34:00,
2013-01-17 21:39:00,69.0,31.8,30.08,East,90,0.0,0.0,25,0.00,,---,0.00,VWS V14.01,2013-01-18 02:39:00,
2013-01-17 21:44:00,68.0,29.9,30.08,East,90,0.0,0.0,24,0.00,,---,0.00,VWS V14.01,2013-01-18 02:44:00,
2013-01-17 21:49:00,69.0,31.8,30.07,East,90,0.0,0.0,25,0.00,,---,0.00,VWS V14.01,2013-01-18 02:49:00,
2013-01-17 21:54:00,68.0,30.9,30.07,East,90,0.0,0.0,25,0.00,,---,0.00,VWS V14.01,2013-01-18 02:54:00,
2013-01-17 21:59:00,69.0,30.7,30.07,East,90,0.0,0.0,24,0.00,,---,0.00,VWS V14.01,2013-01-18 02:59:00,
2013-01-17 22:04:00,68.0,30.9,30.07,East,90,0.0,0.0,25,0.00,,---,0.00,VWS V14.01,2013-01-18 03:04:00,
2013-01-17 22:09:00,68.0,29.9,30.05,East,90,0.0,0.0,24,0.00,,---,0.00,VWS V14.01,2013-01-18 03:09:00,
2013-01-17 22:14:00,68.0,30.9,30.05,East,90,0.0,0.0,25,0.00,,---,0.00,VWS V14.01,2013-01-18 03:14:00,
2013-01-17 22:19:00,68.0,29.9,30.05,East,90,0.0,0.0,24,0.00,,---,0.00,VWS V14.01,2013-01-18 03:19:00,
2013-01-17 22:24:00,68.0,29.9,30.05,East,90,0.0,0.0,24,0.00,,---,0.00,VWS V14.01,2013-01-18 03:24:00,
2013-01-17 22:29:00,68.0,29.9,30.05,East,90,0.0,0.0,24,0.00,,---,0.00,VWS V14.01,2013-01-18 03:29:00,
2013-01-17 22:34:00,68.0,29.9,30.05,East,90,0.0,0.0,24,0.00,,---,0.00,VWS V14.01,2013-01-18 03:34:00,
2013-01-17 22:39:00,68.0,30.9,30.02,East,90,0.0,0.0,25,0.00,,---,0.00,VWS V14.01,2013-01-18 03:39:00,
2013-01-17 22:44:00,68.0,30.9,30.02,East,90,0.0,0.0,25,0.00,,---,0.00,VWS V14.01,2013-01-18 03:44:00,
2013-01-17 22:49:00,68.0,30.9,30.04,East,90,0.0,0.0,25,0.00,,---,0.00,VWS V14.01,2013-01-18 03:49:00,
2013-01-17 22:54:00,68.0,30.9,30.04,East,90,0.0,0.0,25,0.00,,---,0.00,VWS V14.01,2013-01-18 03:54:00,
2013-01-17 22:59:00,68.0,30.9,30.08,East,90,0.0,0.0,25,0.00,,---,0.00,VWS V14.01,2013-01-18 03:59:00,
2013-01-17 23:04:00,68.0,30.9,30.08,East,90,0.0,0.0,25,0.00,,---,0.00,VWS V14.01,2013-01-18 04:04:00,
2013-01-17 23:09:00,68.0,30.9,30.08,East,90,0.0,0.0,25,0.00,,---,0.00,VWS V14.01,2013-01-18 04:09:00,
2013-01-17 23:14:00,68.0,29.9,30.08,East,90,0.0,0.0,24,0.00,,---,0.00,VWS V14.01,2013-01-18 04:14:00,
2013-01-17 23:19:00,68.0,29.9,30.06,East,90,0.0,0.0,24,0.00,,---,0.00,VWS V14.01,2013-01-18 04:19:00,
2013-01-17 23:24:00,68.0,29.9,30.06,East,90,0.0,0.0,24,0.00,,---,0.00,VWS V14.01,2013-01-18 04:24:00,
2013-01-17 23:29:00,68.0,28.9,30.06,East,90,0.0,0.0,23,0.00,,---,0.00,VWS V14.01,2013-01-18 04:29:00,
2013-01-17 23:34:00,68.0,28.9,30.06,East,90,0.0,0.0,23,0.00,,---,0.00,VWS V14.01,2013-01-18 04:34:00,
2013-01-17 23:39:00,68.0,28.9,30.07,East,90,0.0,0.0,23,0.00,,---,0.00,VWS V14.01,2013-01-18 04:39:00,
2013-01-17 23:44:00,67.0,29.0,30.07,East,90,0.0,0.0,24,0.00,,---,0.00,VWS V14.01,2013-01-18 04:44:00,
2013-01-17 23:49:00,68.0,28.9,30.04,East,90,0.0,0.0,23,0.00,,---,0.00,VWS V14.01,2013-01-18 04:49:00,
2013-01-17 23:54:00,68.0,28.9,30.04,East,90,0.0,0.0,23,0.00,,---,0.00,VWS V14.01,2013-01-18 04:54:00,
2013-01-17 23:59:00,68.0,28.9,30.04,East,90,0.0,0.0,23,0.00,,---,0.00,VWS V14.01,2013-01-18 04:59:00,